Year,Month,Day,Hour,Minute,Value (Times are PST for temperature in C)
2012,08,04,00,00,21.50
2012,08,04,00,01,21.50
2012,08,04,00,02,21.40
2012,08,04,00,03,21.40
2012,08,04,00,04,21.40
2012,08,04,00,05,21.30
2012,08,04,00,06,21.30
2012,08,04,00,07,21.30
2012,08,04,00,08,21.20
2012,08,04,00,09,21.20
2012,08,04,00,10,21.20
2012,08,04,00,11,21.20
2012,08,04,00,12,21.20
2012,08,04,00,13,21.10
2012,08,04,00,14,21.10
2012,08,04,00,15,21.10
2012,08,04,00,16,21.10
2012,08,04,00,17,21.10
2012,08,04,00,18,21.10
2012,08,04,00,19,21.10
2012,08,04,00,20,21.10
2012,08,04,00,21,21.10
2012,08,04,00,22,21.10
2012,08,04,00,23,21.10
2012,08,04,00,24,21.10
2012,08,04,00,25,21.00
2012,08,04,00,26,21.00
2012,08,04,00,27,21.00
2012,08,04,00,28,21.00
2012,08,04,00,29,20.90
2012,08,04,00,30,20.90
2012,08,04,00,31,20.90
2012,08,04,00,32,20.90
2012,08,04,00,33,20.90
2012,08,04,00,34,20.80
2012,08,04,00,35,20.80
2012,08,04,00,36,20.80
2012,08,04,00,37,20.80
2012,08,04,00,38,20.70
2012,08,04,00,39,20.70
2012,08,04,00,40,20.60
2012,08,04,00,41,20.60
2012,08,04,00,42,20.50
2012,08,04,00,43,20.40
2012,08,04,00,44,20.40
2012,08,04,00,45,20.30
2012,08,04,00,46,20.20
2012,08,04,00,47,20.10
2012,08,04,00,48,20.10
2012,08,04,00,49,20.00
2012,08,04,00,50,19.90
2012,08,04,00,51,19.90
2012,08,04,00,52,19.80
2012,08,04,00,53,19.80
2012,08,04,00,54,19.70
2012,08,04,00,55,19.70
2012,08,04,00,56,19.70
2012,08,04,00,57,19.60
2012,08,04,00,58,19.60
2012,08,04,00,59,19.60
2012,08,04,01,00,19.50
2012,08,04,01,01,19.50
2012,08,04,01,02,19.40
2012,08,04,01,03,19.40
2012,08,04,01,04,19.30
2012,08,04,01,05,19.30
2012,08,04,01,06,19.20
2012,08,04,01,07,19.10
2012,08,04,01,08,19.10
2012,08,04,01,09,19.00
2012,08,04,01,10,18.90
2012,08,04,01,11,18.80
2012,08,04,01,12,18.80
2012,08,04,01,13,18.70
2012,08,04,01,14,18.70
2012,08,04,01,15,18.60
2012,08,04,01,16,18.60
2012,08,04,01,17,18.60
2012,08,04,01,18,18.50
2012,08,04,01,19,18.40
2012,08,04,01,20,18.40
2012,08,04,01,21,18.40
2012,08,04,01,22,18.30
2012,08,04,01,23,18.30
2012,08,04,01,24,18.30
2012,08,04,01,25,18.20
2012,08,04,01,26,18.20
2012,08,04,01,27,18.20
2012,08,04,01,28,18.10
2012,08,04,01,29,18.10
2012,08,04,01,30,18.00
2012,08,04,01,31,18.00
2012,08,04,01,32,17.90
2012,08,04,01,33,17.90
2012,08,04,01,34,17.90
2012,08,04,01,35,17.80
2012,08,04,01,36,17.80
2012,08,04,01,37,17.80
2012,08,04,01,38,17.70
2012,08,04,01,39,17.70
2012,08,04,01,40,17.70
2012,08,04,01,41,17.60
2012,08,04,01,42,17.60
2012,08,04,01,43,17.60
2012,08,04,01,44,17.60
2012,08,04,01,45,17.50
2012,08,04,01,46,17.50
2012,08,04,01,47,17.40
2012,08,04,01,48,17.40
2012,08,04,01,49,17.40
2012,08,04,01,50,17.40
2012,08,04,01,51,17.40
2012,08,04,01,52,17.30
2012,08,04,01,53,17.30
2012,08,04,01,54,17.30
2012,08,04,01,55,17.30
2012,08,04,01,56,17.30
2012,08,04,01,57,17.30
2012,08,04,01,58,17.20
2012,08,04,01,59,17.20
2012,08,04,02,00,17.20
2012,08,04,02,01,17.20
2012,08,04,02,02,17.20
2012,08,04,02,03,17.20
2012,08,04,02,04,17.20
2012,08,04,02,05,17.20
2012,08,04,02,06,17.20
2012,08,04,02,07,17.20
2012,08,04,02,08,17.20
2012,08,04,02,09,17.20
2012,08,04,02,10,17.20
2012,08,04,02,11,17.20
2012,08,04,02,12,17.20
2012,08,04,02,13,17.30
2012,08,04,02,14,17.40
2012,08,04,02,15,17.40
2012,08,04,02,16,17.50
2012,08,04,02,17,17.50
2012,08,04,02,18,17.60
2012,08,04,02,19,17.60
2012,08,04,02,20,17.60
2012,08,04,02,21,17.60
2012,08,04,02,22,17.60
2012,08,04,02,23,17.60
2012,08,04,02,24,17.60
2012,08,04,02,25,17.60
2012,08,04,02,26,17.60
2012,08,04,02,27,17.60
2012,08,04,02,28,17.60
2012,08,04,02,29,17.60
2012,08,04,02,30,17.50
2012,08,04,02,31,17.50
2012,08,04,02,32,17.50
2012,08,04,02,33,17.50
2012,08,04,02,34,17.40
2012,08,04,02,35,17.40
2012,08,04,02,36,17.40
2012,08,04,02,37,17.40
2012,08,04,02,38,17.40
2012,08,04,02,39,17.40
2012,08,04,02,40,17.40
2012,08,04,02,41,17.40
2012,08,04,02,42,17.40
2012,08,04,02,43,17.30
2012,08,04,02,44,17.30
2012,08,04,02,45,17.20
2012,08,04,02,46,17.20
2012,08,04,02,47,17.20
2012,08,04,02,48,17.20
2012,08,04,02,49,17.10
2012,08,04,02,50,17.10
2012,08,04,02,51,17.10
2012,08,04,02,52,17.10
2012,08,04,02,53,17.10
2012,08,04,02,54,17.00
2012,08,04,02,55,17.00
2012,08,04,02,56,17.00
2012,08,04,02,57,16.90
2012,08,04,02,58,16.90
2012,08,04,02,59,16.90
2012,08,04,03,00,16.80
2012,08,04,03,01,16.80
2012,08,04,03,02,16.80
2012,08,04,03,03,16.80
2012,08,04,03,04,16.70
2012,08,04,03,05,16.70
2012,08,04,03,06,16.70
2012,08,04,03,07,16.70
2012,08,04,03,08,16.70
2012,08,04,03,09,16.70
2012,08,04,03,10,16.80
2012,08,04,03,11,16.90
2012,08,04,03,12,17.00
2012,08,04,03,13,17.10
2012,08,04,03,14,17.10
2012,08,04,03,15,17.20
2012,08,04,03,16,17.30
2012,08,04,03,17,17.30
2012,08,04,03,18,17.40
2012,08,04,03,19,17.40
2012,08,04,03,20,17.40
2012,08,04,03,21,17.50
2012,08,04,03,22,17.50
2012,08,04,03,23,17.50
2012,08,04,03,24,17.60
2012,08,04,03,25,17.60
2012,08,04,03,26,17.60
2012,08,04,03,27,17.70
2012,08,04,03,28,17.70
2012,08,04,03,29,17.70
2012,08,04,03,30,17.80
2012,08,04,03,31,17.80
2012,08,04,03,32,17.80
2012,08,04,03,33,17.80
2012,08,04,03,34,17.90
2012,08,04,03,35,18.00
2012,08,04,03,36,18.00
2012,08,04,03,37,18.10
2012,08,04,03,38,18.20
2012,08,04,03,39,18.20
2012,08,04,03,40,18.20
2012,08,04,03,41,18.30
2012,08,04,03,42,18.30
2012,08,04,03,43,18.40
2012,08,04,03,44,18.40
2012,08,04,03,45,18.40
2012,08,04,03,46,18.40
2012,08,04,03,47,18.40
2012,08,04,03,48,18.40
2012,08,04,03,49,18.30
2012,08,04,03,50,18.30
2012,08,04,03,51,18.20
2012,08,04,03,52,18.20
2012,08,04,03,53,18.10
2012,08,04,03,54,18.10
2012,08,04,03,55,18.00
2012,08,04,03,56,18.10
2012,08,04,03,57,18.10
2012,08,04,03,58,18.10
2012,08,04,03,59,18.10
2012,08,04,04,00,18.20
2012,08,04,04,01,18.20
2012,08,04,04,02,18.30
2012,08,04,04,03,18.30
2012,08,04,04,04,18.40
2012,08,04,04,05,18.40
2012,08,04,04,06,18.40
2012,08,04,04,07,18.50
2012,08,04,04,08,18.50
2012,08,04,04,09,18.60
2012,08,04,04,10,18.60
2012,08,04,04,11,18.60
2012,08,04,04,12,18.60
2012,08,04,04,13,18.60
2012,08,04,04,14,18.60
2012,08,04,04,15,18.60
2012,08,04,04,16,18.60
2012,08,04,04,17,18.50
2012,08,04,04,18,18.50
2012,08,04,04,19,18.40
2012,08,04,04,20,18.40
2012,08,04,04,21,18.40
2012,08,04,04,22,18.30
2012,08,04,04,23,18.30
2012,08,04,04,24,18.30
2012,08,04,04,25,18.30
2012,08,04,04,26,18.20
2012,08,04,04,27,18.20
2012,08,04,04,28,18.10
2012,08,04,04,29,18.10
2012,08,04,04,30,18.00
2012,08,04,04,31,17.90
2012,08,04,04,32,17.90
2012,08,04,04,33,17.80
2012,08,04,04,34,17.70
2012,08,04,04,35,17.70
2012,08,04,04,36,17.60
2012,08,04,04,37,17.60
2012,08,04,04,38,17.60
2012,08,04,04,39,17.60
2012,08,04,04,40,17.60
2012,08,04,04,41,17.60
2012,08,04,04,42,17.60
2012,08,04,04,43,17.60
2012,08,04,04,44,17.70
2012,08,04,04,45,17.70
2012,08,04,04,46,17.70
2012,08,04,04,47,17.80
2012,08,04,04,48,17.80
2012,08,04,04,49,17.90
2012,08,04,04,50,17.90
2012,08,04,04,51,17.90
2012,08,04,04,52,17.90
2012,08,04,04,53,17.90
2012,08,04,04,54,17.90
2012,08,04,04,55,17.90
2012,08,04,04,56,17.90
2012,08,04,04,57,17.90
2012,08,04,04,58,17.90
2012,08,04,04,59,17.90
2012,08,04,05,00,17.90
2012,08,04,05,01,17.90
2012,08,04,05,02,17.90
2012,08,04,05,03,17.80
2012,08,04,05,04,17.80
2012,08,04,05,05,17.80
2012,08,04,05,06,17.80
2012,08,04,05,07,17.80
2012,08,04,05,08,17.80
2012,08,04,05,09,17.80
2012,08,04,05,10,17.80
2012,08,04,05,11,17.80
2012,08,04,05,12,17.80
2012,08,04,05,13,17.80
2012,08,04,05,14,17.80
2012,08,04,05,15,17.80
2012,08,04,05,16,17.80
2012,08,04,05,17,17.80
2012,08,04,05,18,17.80
2012,08,04,05,19,17.80
2012,08,04,05,20,17.70
2012,08,04,05,21,17.70
2012,08,04,05,22,17.70
2012,08,04,05,23,17.70
2012,08,04,05,24,17.70
2012,08,04,05,25,17.70
2012,08,04,05,26,17.60
2012,08,04,05,27,17.60
2012,08,04,05,28,17.60
2012,08,04,05,29,17.60
2012,08,04,05,30,17.60
2012,08,04,05,31,17.60
2012,08,04,05,32,17.60
2012,08,04,05,33,17.60
2012,08,04,05,34,17.70
2012,08,04,05,35,17.70
2012,08,04,05,36,17.70
2012,08,04,05,37,17.70
2012,08,04,05,38,17.70
2012,08,04,05,39,17.70
2012,08,04,05,40,17.70
2012,08,04,05,41,17.70
2012,08,04,05,42,17.70
2012,08,04,05,43,17.70
2012,08,04,05,44,17.70
2012,08,04,05,45,17.70
2012,08,04,05,46,17.70
2012,08,04,05,47,17.70
2012,08,04,05,48,17.70
2012,08,04,05,49,17.70
2012,08,04,05,50,17.80
2012,08,04,05,51,17.80
2012,08,04,05,52,17.80
2012,08,04,05,53,17.80
2012,08,04,05,54,17.80
2012,08,04,05,55,17.80
2012,08,04,05,56,17.90
2012,08,04,05,57,17.90
2012,08,04,05,58,17.90
2012,08,04,05,59,17.80
2012,08,04,06,00,17.80
2012,08,04,06,01,17.80
2012,08,04,06,02,17.80
2012,08,04,06,03,17.80
2012,08,04,06,04,17.70
2012,08,04,06,05,17.70
2012,08,04,06,06,17.70
2012,08,04,06,07,17.60
2012,08,04,06,08,17.60
2012,08,04,06,09,17.60
2012,08,04,06,10,17.60
2012,08,04,06,11,17.60
2012,08,04,06,12,17.60
2012,08,04,06,13,17.60
2012,08,04,06,14,17.70
2012,08,04,06,15,17.70
2012,08,04,06,16,17.70
2012,08,04,06,17,17.80
2012,08,04,06,18,17.80
2012,08,04,06,19,17.80
2012,08,04,06,20,17.80
2012,08,04,06,21,17.80
2012,08,04,06,22,17.80
2012,08,04,06,23,17.80
2012,08,04,06,24,17.80
2012,08,04,06,25,17.80
2012,08,04,06,26,17.80
2012,08,04,06,27,17.90
2012,08,04,06,28,17.90
2012,08,04,06,29,17.90
2012,08,04,06,30,17.90
2012,08,04,06,31,18.00
2012,08,04,06,32,18.00
2012,08,04,06,33,18.10
2012,08,04,06,34,18.10
2012,08,04,06,35,18.20
2012,08,04,06,36,18.20
2012,08,04,06,37,18.20
2012,08,04,06,38,18.30
2012,08,04,06,39,18.30
2012,08,04,06,40,18.30
2012,08,04,06,41,18.30
2012,08,04,06,42,18.30
2012,08,04,06,43,18.40
2012,08,04,06,44,18.40
2012,08,04,06,45,18.40
2012,08,04,06,46,18.40
2012,08,04,06,47,18.40
2012,08,04,06,48,18.50
2012,08,04,06,49,18.50
2012,08,04,06,50,18.50
2012,08,04,06,51,18.60
2012,08,04,06,52,18.60
2012,08,04,06,53,18.60
2012,08,04,06,54,18.60
2012,08,04,06,55,18.60
2012,08,04,06,56,18.70
2012,08,04,06,57,18.70
2012,08,04,06,58,18.70
2012,08,04,06,59,18.70
2012,08,04,07,00,18.70
2012,08,04,07,01,18.80
2012,08,04,07,02,18.80
2012,08,04,07,03,18.80
2012,08,04,07,04,18.90
2012,08,04,07,05,18.90
2012,08,04,07,06,19.00
2012,08,04,07,07,19.00
2012,08,04,07,08,19.10
2012,08,04,07,09,19.10
2012,08,04,07,10,19.10
2012,08,04,07,11,19.20
2012,08,04,07,12,19.20
2012,08,04,07,13,19.20
2012,08,04,07,14,19.30
2012,08,04,07,15,19.30
2012,08,04,07,16,19.30
2012,08,04,07,17,19.40
2012,08,04,07,18,19.40
2012,08,04,07,19,19.40
2012,08,04,07,20,19.40
2012,08,04,07,21,19.50
2012,08,04,07,22,19.50
2012,08,04,07,23,19.60
2012,08,04,07,24,19.60
2012,08,04,07,25,19.60
2012,08,04,07,26,19.60
2012,08,04,07,27,19.70
2012,08,04,07,28,19.70
2012,08,04,07,29,19.70
2012,08,04,07,30,19.70
2012,08,04,07,31,19.80
2012,08,04,07,32,19.80
2012,08,04,07,33,19.80
2012,08,04,07,34,19.80
2012,08,04,07,35,19.90
2012,08,04,07,36,19.90
2012,08,04,07,37,19.90
2012,08,04,07,38,20.00
2012,08,04,07,39,20.00
2012,08,04,07,40,20.10
2012,08,04,07,41,20.10
2012,08,04,07,42,20.10
2012,08,04,07,43,20.20
2012,08,04,07,44,20.20
2012,08,04,07,45,20.20
2012,08,04,07,46,20.30
2012,08,04,07,47,20.30
2012,08,04,07,48,20.30
2012,08,04,07,49,20.30
2012,08,04,07,50,20.40
2012,08,04,07,51,20.40
2012,08,04,07,52,20.40
2012,08,04,07,53,20.40
2012,08,04,07,54,20.50
2012,08,04,07,55,20.50
2012,08,04,07,56,20.60
2012,08,04,07,57,20.60
2012,08,04,07,58,20.60
2012,08,04,07,59,20.60
2012,08,04,08,00,20.60
2012,08,04,08,01,20.70
2012,08,04,08,02,20.70
2012,08,04,08,03,20.70
2012,08,04,08,04,20.70
2012,08,04,08,05,20.70
2012,08,04,08,06,20.70
2012,08,04,08,07,20.70
2012,08,04,08,08,20.70
2012,08,04,08,09,20.70
2012,08,04,08,10,20.70
2012,08,04,08,11,20.70
2012,08,04,08,12,20.70
2012,08,04,08,13,20.70
2012,08,04,08,14,20.70
2012,08,04,08,15,20.70
2012,08,04,08,16,20.70
2012,08,04,08,17,20.70
2012,08,04,08,18,20.70
2012,08,04,08,19,20.70
2012,08,04,08,20,20.70
2012,08,04,08,21,20.70
2012,08,04,08,22,20.70
2012,08,04,08,23,20.70
2012,08,04,08,24,20.70
2012,08,04,08,25,20.70
2012,08,04,08,26,20.80
2012,08,04,08,27,20.80
2012,08,04,08,28,20.80
2012,08,04,08,29,20.80
2012,08,04,08,30,20.80
2012,08,04,08,31,20.80
2012,08,04,08,32,20.80
2012,08,04,08,33,20.80
2012,08,04,08,34,20.80
2012,08,04,08,35,20.90
2012,08,04,08,36,20.90
2012,08,04,08,37,21.00
2012,08,04,08,38,21.10
2012,08,04,08,39,21.10
2012,08,04,08,40,21.20
2012,08,04,08,41,21.30
2012,08,04,08,42,21.30
2012,08,04,08,43,21.30
2012,08,04,08,44,21.30
2012,08,04,08,45,21.30
2012,08,04,08,46,21.30
2012,08,04,08,47,21.40
2012,08,04,08,48,21.40
2012,08,04,08,49,21.40
2012,08,04,08,50,21.50
2012,08,04,08,51,21.50
2012,08,04,08,52,21.60
2012,08,04,08,53,21.60
2012,08,04,08,54,21.60
2012,08,04,08,55,21.70
2012,08,04,08,56,21.70
2012,08,04,08,57,21.80
2012,08,04,08,58,21.80
2012,08,04,08,59,21.80
2012,08,04,09,00,21.80
2012,08,04,09,01,21.80
2012,08,04,09,02,21.90
2012,08,04,09,03,21.90
2012,08,04,09,04,21.90
2012,08,04,09,05,21.90
2012,08,04,09,06,22.00
2012,08,04,09,07,22.00
2012,08,04,09,08,22.00
2012,08,04,09,09,22.00
2012,08,04,09,10,22.00
2012,08,04,09,11,22.10
2012,08,04,09,12,22.10
2012,08,04,09,13,22.20
2012,08,04,09,14,22.20
2012,08,04,09,15,22.20
2012,08,04,09,16,22.20
2012,08,04,09,17,22.20
2012,08,04,09,18,22.20
2012,08,04,09,19,22.20
2012,08,04,09,20,22.10
2012,08,04,09,21,22.10
2012,08,04,09,22,22.10
2012,08,04,09,23,22.10
2012,08,04,09,24,22.10
2012,08,04,09,25,22.10
2012,08,04,09,26,22.10
2012,08,04,09,27,22.10
2012,08,04,09,28,22.10
2012,08,04,09,29,22.10
2012,08,04,09,30,22.10
2012,08,04,09,31,22.10
2012,08,04,09,32,22.10
2012,08,04,09,33,22.00
2012,08,04,09,34,22.00
2012,08,04,09,35,22.00
2012,08,04,09,36,22.10
2012,08,04,09,37,22.10
2012,08,04,09,38,22.10
2012,08,04,09,39,22.20
2012,08,04,09,40,22.30
2012,08,04,09,41,22.30
2012,08,04,09,42,22.30
2012,08,04,09,43,22.30
2012,08,04,09,44,22.20
2012,08,04,09,45,22.20
2012,08,04,09,46,22.20
2012,08,04,09,47,22.20
2012,08,04,09,48,22.20
2012,08,04,09,49,22.20
2012,08,04,09,50,22.20
2012,08,04,09,51,22.20
2012,08,04,09,52,22.30
2012,08,04,09,53,22.30
2012,08,04,09,54,22.40
2012,08,04,09,55,22.40
2012,08,04,09,56,22.40
2012,08,04,09,57,22.40
2012,08,04,09,58,22.40
2012,08,04,09,59,22.40
2012,08,04,10,00,22.30
2012,08,04,10,01,22.20
2012,08,04,10,02,22.20
2012,08,04,10,03,22.10
2012,08,04,10,04,22.10
2012,08,04,10,05,22.10
2012,08,04,10,06,22.20
2012,08,04,10,07,22.20
2012,08,04,10,08,22.20
2012,08,04,10,09,22.20
2012,08,04,10,10,22.30
2012,08,04,10,11,22.30
2012,08,04,10,12,22.30
2012,08,04,10,13,22.30
2012,08,04,10,14,22.30
2012,08,04,10,15,22.20
2012,08,04,10,16,22.10
2012,08,04,10,17,22.00
2012,08,04,10,18,22.00
2012,08,04,10,19,21.90
2012,08,04,10,20,21.90
2012,08,04,10,21,21.90
2012,08,04,10,22,21.90
2012,08,04,10,23,21.90
2012,08,04,10,24,22.00
2012,08,04,10,25,22.00
2012,08,04,10,26,22.10
2012,08,04,10,27,22.10
2012,08,04,10,28,22.10
2012,08,04,10,29,22.20
2012,08,04,10,30,22.20
2012,08,04,10,31,22.20
2012,08,04,10,32,22.20
2012,08,04,10,33,22.20
2012,08,04,10,34,22.30
2012,08,04,10,35,22.30
2012,08,04,10,36,22.40
2012,08,04,10,37,22.50
2012,08,04,10,38,22.60
2012,08,04,10,39,22.70
2012,08,04,10,40,22.80
2012,08,04,10,41,22.90
2012,08,04,10,42,23.00
2012,08,04,10,43,23.10
2012,08,04,10,44,23.20
2012,08,04,10,45,23.20
2012,08,04,10,46,23.20
2012,08,04,10,47,23.20
2012,08,04,10,48,23.10
2012,08,04,10,49,23.10
2012,08,04,10,50,23.10
2012,08,04,10,51,23.10
2012,08,04,10,52,23.10
2012,08,04,10,53,23.10
2012,08,04,10,54,23.10
2012,08,04,10,55,23.20
2012,08,04,10,56,23.20
2012,08,04,10,57,23.20
2012,08,04,10,58,23.20
2012,08,04,10,59,23.20
2012,08,04,11,00,23.20
2012,08,04,11,01,23.30
2012,08,04,11,02,23.30
2012,08,04,11,03,23.30
2012,08,04,11,04,23.30
2012,08,04,11,05,23.30
2012,08,04,11,06,23.40
2012,08,04,11,07,23.40
2012,08,04,11,08,23.40
2012,08,04,11,09,23.40
2012,08,04,11,10,23.40
2012,08,04,11,11,23.40
2012,08,04,11,12,23.40
2012,08,04,11,13,23.40
2012,08,04,11,14,23.40
2012,08,04,11,15,23.40
2012,08,04,11,16,23.50
2012,08,04,11,17,23.50
2012,08,04,11,18,23.60
2012,08,04,11,19,23.60
2012,08,04,11,20,23.60
2012,08,04,11,21,23.60
2012,08,04,11,22,23.70
2012,08,04,11,23,23.80
2012,08,04,11,24,23.80
2012,08,04,11,25,23.80
2012,08,04,11,26,23.80
2012,08,04,11,27,23.80
2012,08,04,11,28,23.80
2012,08,04,11,29,23.80
2012,08,04,11,30,23.80
2012,08,04,11,31,23.80
2012,08,04,11,32,23.70
2012,08,04,11,33,23.70
2012,08,04,11,34,23.60
2012,08,04,11,35,23.60
2012,08,04,11,36,23.60
2012,08,04,11,37,23.60
2012,08,04,11,38,23.60
2012,08,04,11,39,23.60
2012,08,04,11,40,23.70
2012,08,04,11,41,23.70
2012,08,04,11,42,23.70
2012,08,04,11,43,23.80
2012,08,04,11,44,23.80
2012,08,04,11,45,23.80
2012,08,04,11,46,23.90
2012,08,04,11,47,23.90
2012,08,04,11,48,23.90
2012,08,04,11,49,23.90
2012,08,04,11,50,23.90
2012,08,04,11,51,23.90
2012,08,04,11,52,23.90
2012,08,04,11,53,23.90
2012,08,04,11,54,23.90
2012,08,04,11,55,23.90
2012,08,04,11,56,23.90
2012,08,04,11,57,23.90
2012,08,04,11,58,23.90
2012,08,04,11,59,23.80
2012,08,04,12,00,23.80
2012,08,04,12,01,23.80
2012,08,04,12,02,23.90
2012,08,04,12,03,23.90
2012,08,04,12,04,23.90
2012,08,04,12,05,23.90
2012,08,04,12,06,23.90
2012,08,04,12,07,23.90
2012,08,04,12,08,23.90
2012,08,04,12,09,23.90
2012,08,04,12,10,23.80
2012,08,04,12,11,23.80
2012,08,04,12,12,23.80
2012,08,04,12,13,23.80
2012,08,04,12,14,23.70
2012,08,04,12,15,23.60
2012,08,04,12,16,23.60
2012,08,04,12,17,23.60
2012,08,04,12,18,23.60
2012,08,04,12,19,23.70
2012,08,04,12,20,23.60
2012,08,04,12,21,23.60
2012,08,04,12,22,23.60
2012,08,04,12,23,23.60
2012,08,04,12,24,23.60
2012,08,04,12,25,23.60
2012,08,04,12,26,23.60
2012,08,04,12,27,23.60
2012,08,04,12,28,23.60
2012,08,04,12,29,23.60
2012,08,04,12,30,23.60
2012,08,04,12,31,23.60
2012,08,04,12,32,23.60
2012,08,04,12,33,23.70
2012,08,04,12,34,23.70
2012,08,04,12,35,23.70
2012,08,04,12,36,23.70
2012,08,04,12,37,23.70
2012,08,04,12,38,23.80
2012,08,04,12,39,23.80
2012,08,04,12,40,23.80
2012,08,04,12,41,23.90
2012,08,04,12,42,23.90
2012,08,04,12,43,24.00
2012,08,04,12,44,24.10
2012,08,04,12,45,24.20
2012,08,04,12,46,24.20
2012,08,04,12,47,24.30
2012,08,04,12,48,24.30
2012,08,04,12,49,24.30
2012,08,04,12,50,24.30
2012,08,04,12,51,24.30
2012,08,04,12,52,24.30
2012,08,04,12,53,24.30
2012,08,04,12,54,24.40
2012,08,04,12,55,24.30
2012,08,04,12,56,24.30
2012,08,04,12,57,24.30
2012,08,04,12,58,24.30
2012,08,04,12,59,24.30
2012,08,04,13,00,24.30
2012,08,04,13,01,24.30
2012,08,04,13,02,24.40
2012,08,04,13,03,24.40
2012,08,04,13,04,24.40
2012,08,04,13,05,24.40
2012,08,04,13,06,24.40
2012,08,04,13,07,24.40
2012,08,04,13,08,24.40
2012,08,04,13,09,24.30
2012,08,04,13,10,24.30
2012,08,04,13,11,24.30
2012,08,04,13,12,24.30
2012,08,04,13,13,24.30
2012,08,04,13,14,24.30
2012,08,04,13,15,24.30
2012,08,04,13,16,24.30
2012,08,04,13,17,24.30
2012,08,04,13,18,24.30
2012,08,04,13,19,24.30
2012,08,04,13,20,24.20
2012,08,04,13,21,24.20
2012,08,04,13,22,24.20
2012,08,04,13,23,24.30
2012,08,04,13,24,24.30
2012,08,04,13,25,24.30
2012,08,04,13,26,24.30
2012,08,04,13,27,24.30
2012,08,04,13,28,24.30
2012,08,04,13,29,24.40
2012,08,04,13,30,24.40
2012,08,04,13,31,24.40
2012,08,04,13,32,24.40
2012,08,04,13,33,24.50
2012,08,04,13,34,24.50
2012,08,04,13,35,24.50
2012,08,04,13,36,24.60
2012,08,04,13,37,24.60
2012,08,04,13,38,24.70
2012,08,04,13,39,24.70
2012,08,04,13,40,24.80
2012,08,04,13,41,24.80
2012,08,04,13,42,24.80
2012,08,04,13,43,24.80
2012,08,04,13,44,24.80
2012,08,04,13,45,24.80
2012,08,04,13,46,24.80
2012,08,04,13,47,24.80
2012,08,04,13,48,24.80
2012,08,04,13,49,24.80
2012,08,04,13,50,24.80
2012,08,04,13,51,24.90
2012,08,04,13,52,24.90
2012,08,04,13,53,24.90
2012,08,04,13,54,24.90
2012,08,04,13,55,24.90
2012,08,04,13,56,24.90
2012,08,04,13,57,24.90
2012,08,04,13,58,24.90
2012,08,04,13,59,24.90
2012,08,04,14,00,24.90
2012,08,04,14,01,25.00
2012,08,04,14,02,25.10
2012,08,04,14,03,25.10
2012,08,04,14,04,25.20
2012,08,04,14,05,25.20
2012,08,04,14,06,25.20
2012,08,04,14,07,25.20
2012,08,04,14,08,25.30
2012,08,04,14,09,25.30
2012,08,04,14,10,25.40
2012,08,04,14,11,25.50
2012,08,04,14,12,25.50
2012,08,04,14,13,25.60
2012,08,04,14,14,25.60
2012,08,04,14,15,25.60
2012,08,04,14,16,25.60
2012,08,04,14,17,25.60
2012,08,04,14,18,25.60
2012,08,04,14,19,25.60
2012,08,04,14,20,25.60
2012,08,04,14,21,25.60
2012,08,04,14,22,25.70
2012,08,04,14,23,25.80
2012,08,04,14,24,25.80
2012,08,04,14,25,25.80
2012,08,04,14,26,25.90
2012,08,04,14,27,25.90
2012,08,04,14,28,25.90
2012,08,04,14,29,26.00
2012,08,04,14,30,26.00
2012,08,04,14,31,26.10
2012,08,04,14,32,26.10
2012,08,04,14,33,26.10
2012,08,04,14,34,26.10
2012,08,04,14,35,26.10
2012,08,04,14,36,26.10
2012,08,04,14,37,26.10
2012,08,04,14,38,26.10
2012,08,04,14,39,26.10
2012,08,04,14,40,26.10
2012,08,04,14,41,26.10
2012,08,04,14,42,26.20
2012,08,04,14,43,26.20
2012,08,04,14,44,26.20
2012,08,04,14,45,26.20
2012,08,04,14,46,26.20
2012,08,04,14,47,26.20
2012,08,04,14,48,26.20
2012,08,04,14,49,26.20
2012,08,04,14,50,26.20
2012,08,04,14,51,26.20
2012,08,04,14,52,26.10
2012,08,04,14,53,26.10
2012,08,04,14,54,26.10
2012,08,04,14,55,26.10
2012,08,04,14,56,26.10
2012,08,04,14,57,26.10
2012,08,04,14,58,26.10
2012,08,04,14,59,26.10
2012,08,04,15,00,26.20
2012,08,04,15,01,26.20
2012,08,04,15,02,26.30
2012,08,04,15,03,26.30
2012,08,04,15,04,26.40
2012,08,04,15,05,26.40
2012,08,04,15,06,26.40
2012,08,04,15,07,26.40
2012,08,04,15,08,26.40
2012,08,04,15,09,26.40
2012,08,04,15,10,26.30
2012,08,04,15,11,26.30
2012,08,04,15,12,26.40
2012,08,04,15,13,26.40
2012,08,04,15,14,26.50
2012,08,04,15,15,26.50
2012,08,04,15,16,26.60
2012,08,04,15,17,26.60
2012,08,04,15,18,26.60
2012,08,04,15,19,26.60
2012,08,04,15,20,26.70
2012,08,04,15,21,26.70
2012,08,04,15,22,26.70
2012,08,04,15,23,26.80
2012,08,04,15,24,26.80
2012,08,04,15,25,26.80
2012,08,04,15,26,26.80
2012,08,04,15,27,26.90
2012,08,04,15,28,26.90
2012,08,04,15,29,26.90
2012,08,04,15,30,27.00
2012,08,04,15,31,27.00
2012,08,04,15,32,27.10
2012,08,04,15,33,27.10
2012,08,04,15,34,27.10
2012,08,04,15,35,27.20
2012,08,04,15,36,27.20
2012,08,04,15,37,27.20
2012,08,04,15,38,27.20
2012,08,04,15,39,27.30
2012,08,04,15,40,27.30
2012,08,04,15,41,27.30
2012,08,04,15,42,27.30
2012,08,04,15,43,27.40
2012,08,04,15,44,27.40
2012,08,04,15,45,27.40
2012,08,04,15,46,27.40
2012,08,04,15,47,27.40
2012,08,04,15,48,27.40
2012,08,04,15,49,27.40
2012,08,04,15,50,27.40
2012,08,04,15,51,27.50
2012,08,04,15,52,27.50
2012,08,04,15,53,27.60
2012,08,04,15,54,27.60
2012,08,04,15,55,27.60
2012,08,04,15,56,27.60
2012,08,04,15,57,27.60
2012,08,04,15,58,27.60
2012,08,04,15,59,27.70
2012,08,04,16,00,27.70
2012,08,04,16,01,27.70
2012,08,04,16,02,27.60
2012,08,04,16,03,27.60
2012,08,04,16,04,27.60
2012,08,04,16,05,27.50
2012,08,04,16,06,27.50
2012,08,04,16,07,27.60
2012,08,04,16,08,27.60
2012,08,04,16,09,27.70
2012,08,04,16,10,27.70
2012,08,04,16,11,27.80
2012,08,04,16,12,27.80
2012,08,04,16,13,27.80
2012,08,04,16,14,27.80
2012,08,04,16,15,27.90
2012,08,04,16,16,27.90
2012,08,04,16,17,27.90
2012,08,04,16,18,28.00
2012,08,04,16,19,28.00
2012,08,04,16,20,28.10
2012,08,04,16,21,28.10
2012,08,04,16,22,28.10
2012,08,04,16,23,28.10
2012,08,04,16,24,28.20
2012,08,04,16,25,28.20
2012,08,04,16,26,28.20
2012,08,04,16,27,28.30
2012,08,04,16,28,28.30
2012,08,04,16,29,28.30
2012,08,04,16,30,28.40
2012,08,04,16,31,28.40
2012,08,04,16,32,28.40
2012,08,04,16,33,28.50
2012,08,04,16,34,28.60
2012,08,04,16,35,28.70
2012,08,04,16,36,28.70
2012,08,04,16,37,28.80
2012,08,04,16,38,28.80
2012,08,04,16,39,28.80
2012,08,04,16,40,28.90
2012,08,04,16,41,28.90
2012,08,04,16,42,28.90
2012,08,04,16,43,28.80
2012,08,04,16,44,28.80
2012,08,04,16,45,28.80
2012,08,04,16,46,28.80
2012,08,04,16,47,28.80
2012,08,04,16,48,28.80
2012,08,04,16,49,28.80
2012,08,04,16,50,28.80
2012,08,04,16,51,28.80
2012,08,04,16,52,28.80
2012,08,04,16,53,28.80
2012,08,04,16,54,28.80
2012,08,04,16,55,28.80
2012,08,04,16,56,28.80
2012,08,04,16,57,28.80
2012,08,04,16,58,28.90
2012,08,04,16,59,28.90
2012,08,04,17,00,28.90
2012,08,04,17,01,28.90
2012,08,04,17,02,28.90
2012,08,04,17,03,28.90
2012,08,04,17,04,28.90
2012,08,04,17,05,29.00
2012,08,04,17,06,29.00
2012,08,04,17,07,29.10
2012,08,04,17,08,29.10
2012,08,04,17,09,29.10
2012,08,04,17,10,29.10
2012,08,04,17,11,29.10
2012,08,04,17,12,29.10
2012,08,04,17,13,29.10
2012,08,04,17,14,29.10
2012,08,04,17,15,29.10
2012,08,04,17,16,29.10
2012,08,04,17,17,29.10
2012,08,04,17,18,29.10
2012,08,04,17,19,29.10